QPF
0.00 0.00 0.00 0.00 0.00 0.00 0.00 0.00 0.00 0.00 0.00 0.00 0.00 0.00 0.00 0.00 0.00 0.00 0.00 0.00 0.00 0.00 0.00 0.00 0.00 0.00 0.00 0.00 0.00 0.00 0.00 0.00 0.00 0.00 0.00 0.00 0.00 0.00 0.00 0.00 0.00 0.00 0.00 0.00
0.00 0.00 0.00 0.00 0.00 0.00 0.00 0.00 0.00 0.00 0.00 0.00 0.00 0.00 0.00 0.00 0.00 0.00 0.00 0.00 0.00 0.00 0.00 0.00 0.00 0.00 0.00 0.00 0.00 0.00 0.00 0.00 0.00 0.00 0.00 0.00 0.00 0.00 0.00 0.00 0.00 0.00 0.00 0.00
0.00 0.00 0.00 0.00 0.00 0.00 0.00 0.00 0.00 0.00 0.00 0.00 0.00 0.00 0.00 0.00 0.00 0.00 0.00 0.00 0.00 0.00 0.00 0.00 0.00 0.00 0.00 0.00 0.00 0.00 0.00 0.00 0.00 0.00 0.00 0.00 0.00 0.00 0.00 0.00 0.00 0.00 0.00 0.00
0.00 0.00 0.00 0.00 0.00 0.00 0.00 0.00 0.00 0.00 0.00 0.00 0.00 0.00 0.00 0.00 0.00 0.00 0.00 0.00 0.00 0.00 0.00 0.00 0.00 0.00 0.00 0.00 0.00 0.00 0.00 0.00 0.00 0.00 0.00 0.00 0.00 0.00 0.00 0.00 0.00 0.00 0.00 0.00
0.00 0.00 0.00 0.00 0.00 0.00 0.00 0.00 0.00 0.00 0.00 0.00 0.00 0.00 0.00 0.00 0.00 0.00 0.00 0.00 0.00 0.00 0.00 0.00 0.00 0.00 0.00 0.00 0.00 0.00 0.00 0.00 0.00 0.00 0.00 0.00 0.00 0.00 0.00 0.00 0.00 0.00 0.00 0.00
0.00 0.00 0.00 0.00 0.00 0.00 0.00 0.00 0.00 0.00 0.00 0.00 0.00 0.00 0.00 0.00 0.00 0.00 0.00 0.00 0.00 0.00 0.00 0.00 0.00 0.00 0.00 0.00 0.00 0.00 0.00 0.00 0.00 0.00 0.00 0.00 0.00 0.00 0.00 0.00 0.00 0.00 0.00 0.00
0.00 0.00 0.00 0.00 0.00 0.00 0.00 0.00 0.00 0.00 0.00 0.00 0.00 0.00 0.00 0.00 0.00 0.00 0.00 0.00 0.00 0.00 0.00 0.00 0.00 0.00 0.00 0.00 0.00 0.00 0.00 0.00 0.01 0.01 0.00 0.00 0.00 0.00 0.00 0.00 0.00 0.00 0.00 0.00
0.00 0.00 0.00 0.00 0.00 0.00 0.00 0.00 0.00 0.00 0.00 0.00 0.00 0.00 0.00 0.00 0.00 0.00 0.00 0.00 0.00 0.00 0.00 0.00 0.00 0.00 0.00 0.00 0.00 0.00 0.00 0.00 0.00 0.00 0.00 0.00 0.00 0.00 0.00 0.00 0.00 0.00 0.00 0.00
0.00 0.00 0.00 0.00 0.00 0.00 0.00 0.00 0.00 0.00 0.00 0.00 0.00 0.00 0.00 0.00 0.00 0.00 0.00 0.00 0.00 0.00 0.00 0.00 0.00 0.00 0.00 0.00 0.00 0.00 0.00 0.00 0.00 0.01 0.03 0.00 0.00 0.00 0.00 0.00 0.00 0.00 0.00 0.00
0.00 0.00 0.00 0.00 0.00 0.00 0.00 0.00 0.00 0.00 0.00 0.00 0.00 0.00 0.00 0.00 0.00 0.00 0.00 0.00 0.00 0.00 0.00 0.00 0.00 0.00 0.00 0.00 0.00 0.00 0.00 0.00 0.00 0.01 0.04 0.01 0.00 0.00 0.00 0.00 0.00 0.00 0.00 0.00
0.00 0.00 0.00 0.00 0.00 0.00 0.00 0.00 0.00 0.00 0.00 0.00 0.00 0.00 0.00 0.00 0.00 0.00 0.00 0.00 0.00 0.00 0.00 0.00 0.00 0.00 0.00 0.00 0.00 0.00 0.00 0.00 0.00 0.01 0.03 0.02 0.00 0.00 0.00 0.00 0.00 0.00 0.00 0.00
0.00 0.00 0.00 0.00 0.00 0.00 0.00 0.00 0.00 0.00 0.00 0.00 0.00 0.00 0.00 0.00 0.00 0.00 0.00 0.00 0.00 0.00 0.00 0.00 0.00 0.00 0.00 0.00 0.00 0.00 0.00 0.00 0.00 0.01 0.00 0.00 0.00 0.00 0.00 0.00 0.00 0.00 0.00 0.00
0.00 0.00 0.00 0.00 0.00 0.00 0.00 0.00 0.00 0.00 0.00 0.00 0.00 0.00 0.00 0.00 0.00 0.00 0.00 0.00 0.00 0.00 0.00 0.00 0.00 0.00 0.00 0.00 0.00 0.00 0.00 0.00 0.00 0.00 0.00 0.00 0.00 0.00 0.00 0.00 0.00 0.00 0.00 0.00
0.00 0.00 0.00 0.00 0.00 0.00 0.00 0.00 0.00 0.00 0.00 0.00 0.00 0.00 0.00 0.00 0.00 0.00 0.00 0.00 0.00 0.00 0.00 0.00 0.00 0.00 0.00 0.00 0.00 0.00 0.00 0.00 0.00 0.00 0.00 0.00 0.00 0.00 0.00 0.01 0.01 0.00 0.00 0.00
0.00 0.00 0.00 0.00 0.00 0.00 0.00 0.00 0.00 0.00 0.00 0.00 0.00 0.00 0.00 0.00 0.00 0.00 0.00 0.00 0.00 0.00 0.00 0.00 0.00 0.00 0.00 0.00 0.00 0.00 0.00 0.00 0.00 0.00 0.00 0.00 0.00 0.00 0.00 0.01 0.01 0.01 0.01 0.01
0.00 0.00 0.00 0.00 0.00 0.00 0.00 0.00 0.00 0.00 0.00 0.00 0.00 0.00 0.00 0.00 0.00 0.00 0.00 0.00 0.00 0.00 0.00 0.00 0.00 0.00 0.00 0.00 0.00 0.00 0.00 0.00 0.00 0.00 0.00 0.00 0.00 0.00 0.02 0.02 0.02 0.02 0.02 0.02
0.00 0.00 0.00 0.00 0.00 0.00 0.00 0.00 0.00 0.00 0.00 0.00 0.00 0.00 0.00 0.00 0.01 0.00 0.00 0.01 0.00 0.00 0.00 0.00 0.00 0.00 0.00 0.00 0.00 0.00 0.00 0.00 0.00 0.00 0.00 0.00 0.00 0.00 0.01 0.02 0.03 0.05 0.05 0.03
0.00 0.00 0.00 0.00 0.00 0.00 0.00 0.00 0.00 0.00 0.00 0.00 0.00 0.00 0.00 0.01 0.02 0.04 0.06 0.05 0.02 0.00 0.00 0.00 0.00 0.00 0.00 0.00 0.00 0.00 0.00 0.00 0.00 0.00 0.00 0.00 0.00 0.00 0.00 0.01 0.02 0.05 0.06 0.07
0.00 0.00 0.00 0.00 0.00 0.00 0.00 0.00 0.00 0.00 0.00 0.00 0.00 0.00 0.01 0.07 0.29 0.28 0.17 0.10 0.05 0.03 0.01 0.01 0.01 0.00 0.00 0.00 0.00 0.00 0.00 0.00 0.00 0.00 0.00 0.00 0.00 0.00 0.00 0.00 0.00 0.02 0.05 0.04
0.00 0.00 0.00 0.00 0.00 0.00 0.00 0.00 0.00 0.02 0.01 0.02 0.04 0.03 0.10 0.16 0.12 0.17 0.15 0.35 0.12 0.03 0.03 0.02 0.00 0.00 0.00 0.00 0.00 0.00 0.00 0.00 0.00 0.00 0.00 0.00 0.00 0.00 0.00 0.00 0.00 0.00 0.03 0.06
0.00 0.00 0.00 0.00 0.00 0.00 0.00 0.00 0.01 0.16 0.10 0.08 0.03 0.01 0.04 0.05 0.10 0.15 0.23 0.13 0.03 0.13 0.07 0.12 0.05 0.01 0.00 0.00 0.00 0.00 0.00 0.00 0.00 0.00 0.00 0.00 0.00 0.00 0.00 0.00 0.00 0.00 0.00 0.03
0.00 0.00 0.00 0.00 0.00 0.00 0.00 0.00 0.01 0.01 0.00 0.00 0.04 0.02 0.03 0.02 0.03 0.01 0.00 0.01 0.08 0.21 0.09 0.25 0.34 0.09 0.01 0.00 0.00 0.00 0.00 0.00 0.00 0.02 0.00 0.00 0.00 0.00 0.00 0.00 0.00 0.00 0.00 0.00
0.00 0.00 0.00 0.00 0.00 0.00 0.00 0.02 0.02 0.00 0.01 0.02 0.13 0.03 0.02 0.04 0.01 0.00 0.00 0.01 0.03 0.06 0.10 0.10 0.03 0.07 0.02 0.00 0.00 0.00 0.00 0.00 0.01 0.01 0.00 0.00 0.00 0.00 0.00 0.00 0.00 0.00 0.00 0.00
0.00 0.01 0.01 0.00 0.00 0.00 0.01 0.05 0.02 0.01 0.02 0.04 0.04 0.02 0.04 0.01 0.00 0.00 0.00 0.00 0.01 0.03 0.02 0.02 0.04 0.02 0.02 0.02 0.00 0.00 0.00 0.00 0.01 0.00 0.00 0.00 0.00 0.00 0.00 0.00 0.00 0.00 0.00 0.00
0.00 0.00 0.00 0.00 0.00 0.02 0.20 0.08 0.02 0.01 0.01 0.02 0.01 0.02 0.01 0.00 0.00 0.00 0.00 0.00 0.00 0.00 0.01 0.03 0.02 0.01 0.03 0.01 0.00 0.00 0.00 0.00 0.00 0.00 0.00 0.00 0.00 0.00 0.00 0.00 0.00 0.00 0.01 0.00
0.00 0.00 0.00 0.00 0.01 0.08 0.09 0.01 0.00 0.00 0.00 0.00 0.00 0.00 0.00 0.00 0.00 0.00 0.00 0.00 0.00 0.00 0.01 0.03 0.03 0.02 0.01 0.01 0.00 0.00 0.00 0.00 0.00 0.00 0.00 0.00 0.00 0.00 0.00 0.00 0.00 0.00 0.00 0.00
0.00 0.00 0.00 0.01 0.03 0.14 0.05 0.01 0.00 0.00 0.00 0.00 0.00 0.00 0.00 0.00 0.00 0.00 0.00 0.00 0.00 0.02 0.03 0.01 0.02 0.04 0.09 0.07 0.01 0.00 0.00 0.00 0.01 0.01 0.00 0.01 0.00 0.00 0.00 0.00 0.00 0.00 0.00 0.00
MSLP
1019.93 1019.06 1018.48 1017.62 1016.72 1015.76 1014.72 1014.89 1013.82 1010.51 1009.98 1011.52 1012.81 1013.65 1013.19 1013.00 1013.14 1012.53 1012.69 1012.96 1013.69 1014.41 1014.32 1014.36 1014.06 1014.39 1013.81 1013.09 1012.65 1013.46 1013.66 1013.79 1013.51 1012.32 1011.72 1011.26 1011.74 1013.08 1013.11 1012.88 1013.26 1012.92 1011.97 1010.85
1020.04 1019.26 1018.52 1017.63 1017.01 1016.88 1016.84 1016.26 1014.63 1011.40 1010.76 1013.42 1014.63 1014.50 1014.48 1014.54 1014.34 1014.32 1014.51 1014.92 1015.22 1015.44 1016.09 1015.88 1015.56 1015.09 1015.00 1014.32 1014.31 1014.96 1014.87 1015.62 1015.40 1013.50 1013.14 1013.13 1013.76 1014.25 1014.64 1013.99 1013.70 1013.52 1013.20 1011.88
1020.13 1019.37 1018.59 1017.53 1016.98 1016.96 1017.00 1016.63 1015.82 1014.44 1013.98 1014.66 1015.18 1015.63 1016.15 1015.70 1015.45 1015.71 1015.72 1016.35 1016.09 1016.51 1017.15 1017.02 1017.04 1016.65 1016.22 1015.76 1015.59 1015.73 1015.63 1017.01 1017.49 1017.39 1017.08 1016.30 1015.63 1015.07 1015.24 1015.51 1015.30 1015.08 1013.73 1012.78
1020.20 1019.56 1018.73 1017.50 1016.65 1016.17 1016.43 1016.78 1017.25 1016.54 1016.48 1016.60 1016.52 1016.45 1017.10 1016.91 1016.77 1016.74 1016.82 1017.41 1017.82 1018.11 1018.30 1018.17 1018.32 1018.08 1017.70 1017.02 1016.92 1017.08 1017.70 1018.60 1018.60 1018.26 1017.60 1016.83 1016.27 1015.61 1015.57 1015.93 1015.93 1015.42 1014.33 1013.67
1020.44 1019.64 1018.95 1017.96 1016.85 1015.94 1016.23 1017.45 1017.66 1017.05 1017.43 1017.38 1017.35 1017.62 1017.99 1017.68 1017.60 1017.65 1017.96 1018.33 1018.42 1018.48 1019.13 1019.33 1019.25 1019.17 1019.07 1018.76 1018.50 1018.80 1019.20 1019.67 1019.74 1019.37 1018.28 1017.63 1016.84 1016.18 1015.57 1015.53 1015.60 1015.30 1014.93 1014.22
1020.60 1019.93 1019.19 1018.55 1017.68 1016.56 1017.60 1017.69 1017.58 1017.84 1018.42 1018.44 1018.42 1018.43 1018.26 1018.28 1018.15 1018.21 1018.19 1018.44 1018.60 1018.69 1018.88 1018.89 1018.94 1019.12 1019.46 1019.63 1019.93 1020.26 1020.36 1020.70 1021.29 1021.04 1019.80 1018.67 1017.52 1016.43 1015.91 1015.50 1015.66 1015.57 1015.58 1015.06
1020.78 1020.19 1019.56 1019.15 1018.70 1018.40 1018.75 1018.62 1018.74 1018.93 1019.56 1018.99 1018.85 1018.57 1018.44 1018.48 1018.44 1018.53 1018.53 1018.52 1018.68 1018.75 1018.49 1018.55 1018.55 1018.87 1019.37 1019.76 1019.90 1020.29 1020.84 1021.54 1022.04 1022.25 1021.20 1020.10 1017.68 1016.78 1016.38 1015.98 1016.24 1016.21 1015.91 1015.82
1020.94 1020.41 1019.92 1019.56 1019.20 1018.81 1018.88 1018.82 1019.02 1019.64 1019.76 1019.16 1018.78 1018.64 1018.70 1018.78 1018.79 1018.70 1018.67 1018.62 1018.68 1018.68 1019.08 1019.86 1020.25 1020.47 1020.55 1020.77 1020.88 1020.99 1020.98 1021.62 1022.53 1022.64 1022.00 1020.22 1018.41 1018.54 1018.40 1017.77 1017.68 1017.84 1017.56 1016.94
1021.10 1020.61 1020.12 1019.88 1019.60 1019.20 1019.01 1019.05 1018.96 1019.49 1019.92 1019.21 1018.28 1018.55 1018.78 1019.24 1019.43 1019.34 1019.04 1018.82 1018.82 1019.38 1020.73 1021.33 1022.28 1022.69 1022.82 1022.44 1021.77 1021.62 1021.66 1021.70 1022.40 1023.16 1022.77 1021.64 1020.56 1019.64 1018.70 1017.98 1018.57 1019.18 1019.10 1018.54
1021.34 1020.88 1020.35 1020.06 1019.90 1019.65 1019.63 1019.44 1018.80 1019.21 1019.72 1018.52 1017.87 1018.22 1018.45 1018.58 1019.19 1019.76 1019.44 1019.38 1019.72 1020.43 1022.06 1022.97 1023.76 1023.83 1023.82 1023.78 1023.75 1023.61 1023.21 1023.47 1023.56 1023.28 1022.62 1021.44 1021.11 1019.96 1018.74 1019.32 1020.24 1019.62 1020.02 1019.54
1021.50 1021.14 1020.64 1020.26 1020.16 1019.96 1019.99 1019.67 1018.92 1019.36 1019.59 1018.41 1017.32 1017.26 1017.45 1017.97 1018.47 1019.34 1019.60 1020.36 1020.63 1021.60 1022.82 1023.58 1024.30 1024.41 1024.42 1024.47 1024.44 1024.20 1024.19 1024.44 1024.19 1024.08 1023.11 1021.95 1021.46 1020.82 1021.27 1020.66 1020.50 1020.56 1020.11 1019.85
1021.52 1021.21 1020.88 1020.50 1020.33 1020.22 1020.01 1020.10 1019.12 1019.09 1019.49 1018.24 1017.12 1016.62 1016.42 1016.36 1016.86 1017.88 1018.94 1019.88 1020.58 1021.30 1022.55 1023.53 1024.25 1024.52 1024.55 1024.56 1024.42 1024.24 1024.46 1024.30 1024.38 1024.24 1022.98 1021.80 1021.91 1022.04 1021.81 1021.38 1021.06 1020.57 1019.96 1019.60
1021.56 1021.22 1020.95 1020.67 1020.53 1020.48 1020.51 1020.65 1020.19 1019.67 1019.74 1018.39 1017.39 1016.36 1015.87 1015.90 1016.30 1016.76 1018.46 1019.48 1019.74 1020.66 1021.00 1022.62 1023.47 1024.14 1024.30 1024.43 1024.16 1024.06 1023.95 1024.04 1024.19 1024.17 1022.38 1022.25 1022.02 1021.62 1021.48 1021.25 1020.72 1020.23 1019.86 1018.95
1021.48 1021.17 1020.91 1020.74 1020.60 1020.57 1020.65 1021.12 1020.63 1020.64 1020.40 1020.00 1017.99 1016.12 1016.10 1015.62 1016.07 1016.56 1016.96 1017.87 1018.95 1019.99 1020.85 1022.04 1022.69 1023.15 1023.31 1023.56 1023.42 1023.66 1023.38 1023.77 1023.36 1023.06 1022.28 1022.02 1021.65 1021.47 1021.01 1020.66 1020.20 1019.47 1018.75 1018.24
1021.41 1021.17 1020.82 1020.75 1020.68 1020.60 1020.66 1020.82 1020.30 1020.26 1020.73 1020.37 1018.70 1017.10 1015.80 1015.67 1016.12 1016.47 1017.04 1017.94 1019.05 1020.42 1021.20 1021.42 1021.50 1021.53 1022.41 1022.56 1022.91 1022.75 1022.47 1022.32 1022.54 1021.86 1021.21 1021.47 1021.10 1020.71 1020.46 1020.30 1019.66 1018.96 1018.52 1017.61
1021.24 1021.15 1020.88 1020.74 1020.65 1020.53 1020.78 1020.80 1020.13 1019.93 1019.74 1019.89 1019.25 1017.00 1015.62 1015.07 1015.50 1016.18 1016.82 1017.55 1018.69 1019.56 1020.31 1020.80 1020.48 1019.69 1020.41 1021.79 1021.93 1020.76 1020.77 1020.78 1020.72 1020.65 1020.26 1020.48 1020.15 1020.04 1019.82 1019.78 1019.24 1018.52 1018.03 1017.46
1021.01 1021.01 1020.67 1020.54 1020.56 1020.77 1020.83 1020.43 1019.77 1019.64 1019.71 1019.88 1019.30 1017.94 1016.08 1015.73 1015.84 1016.28 1016.85 1017.02 1017.72 1018.18 1019.08 1019.32 1019.60 1019.78 1019.98 1020.58 1020.71 1019.56 1019.62 1019.72 1019.88 1019.77 1020.06 1020.02 1019.45 1019.40 1019.06 1019.03 1018.84 1018.36 1017.76 1017.20
1020.72 1020.70 1020.43 1020.31 1020.30 1020.33 1020.16 1018.96 1018.88 1019.53 1019.54 1019.41 1019.30 1017.80 1016.50 1015.89 1016.87 1017.47 1017.35 1017.24 1017.39 1017.50 1017.72 1018.38 1018.98 1019.68 1019.86 1019.84 1018.82 1018.62 1018.70 1018.90 1019.18 1019.16 1019.30 1019.00 1018.68 1018.72 1018.53 1018.52 1018.45 1018.12 1017.46 1016.92
1020.46 1020.42 1020.21 1020.23 1020.35 1020.08 1019.49 1018.84 1018.62 1018.81 1019.52 1019.21 1018.60 1018.01 1017.04 1016.27 1016.98 1017.52 1017.26 1017.16 1017.42 1016.95 1017.34 1017.50 1018.22 1019.38 1019.50 1018.09 1017.98 1017.97 1017.88 1018.13 1018.28 1018.30 1018.49 1018.47 1018.47 1018.26 1018.00 1018.00 1018.03 1017.94 1017.43 1016.88
1020.31 1020.44 1020.19 1019.69 1019.12 1018.61 1019.00 1019.37 1019.29 1019.41 1019.47 1019.41 1018.96 1017.83 1017.45 1017.02 1017.05 1017.32 1017.43 1017.40 1017.34 1016.82 1016.48 1016.70 1017.54 1018.37 1017.74 1017.31 1017.01 1016.87 1017.00 1017.20 1017.44 1017.56 1017.74 1017.74 1017.81 1017.54 1017.38 1017.43 1017.55 1017.54 1017.28 1016.90
1020.59 1020.26 1019.66 1019.02 1018.73 1018.91 1019.05 1019.15 1019.33 1019.36 1019.40 1018.85 1018.10 1017.53 1017.48 1016.68 1017.20 1017.54 1017.56 1017.66 1017.38 1017.19 1017.34 1017.30 1018.12 1018.24 1017.43 1016.69 1016.44 1016.37 1016.29 1016.31 1016.57 1016.52 1016.72 1016.91 1017.08 1017.01 1016.88 1016.85 1016.93 1016.96 1016.78 1016.60
1020.18 1020.15 1019.36 1018.90 1018.81 1018.64 1018.69 1018.12 1017.78 1018.17 1018.06 1017.90 1017.58 1016.73 1016.71 1016.64 1016.68 1017.24 1017.76 1017.74 1017.81 1018.30 1018.28 1018.59 1018.64 1018.06 1017.02 1016.58 1016.04 1015.88 1015.82 1015.84 1016.02 1016.28 1016.50 1016.44 1016.29 1016.35 1016.29 1016.17 1016.22 1016.31 1016.26 1016.08
1019.67 1019.74 1019.14 1018.46 1017.95 1018.08 1017.97 1017.92 1017.63 1017.41 1016.85 1016.54 1016.27 1016.20 1015.94 1016.48 1016.98 1017.40 1017.58 1017.70 1018.17 1018.48 1018.75 1018.65 1018.07 1017.17 1016.48 1016.14 1015.94 1015.58 1015.45 1015.48 1015.60 1015.79 1015.90 1015.88 1015.77 1015.80 1015.80 1015.74 1015.68 1015.86 1015.96 1015.70
1019.66 1018.80 1018.41 1017.74 1016.90 1016.40 1016.62 1016.61 1016.10 1015.56 1015.24 1015.22 1015.55 1016.07 1016.02 1016.24 1016.90 1017.20 1017.40 1017.56 1017.77 1018.10 1018.54 1018.28 1017.28 1016.67 1016.18 1015.84 1015.55 1015.39 1015.24 1015.33 1015.29 1015.22 1015.23 1015.44 1015.65 1015.38 1015.20 1015.28 1015.36 1015.63 1015.84 1015.66
1018.84 1017.64 1016.97 1015.74 1014.89 1015.09 1014.95 1015.00 1015.36 1014.60 1014.17 1014.57 1015.15 1015.46 1015.64 1016.27 1016.59 1016.93 1017.14 1017.41 1017.59 1017.79 1017.96 1017.37 1016.70 1016.05 1015.68 1015.46 1015.18 1015.25 1015.13 1015.13 1015.16 1014.99 1015.00 1015.15 1015.15 1014.96 1014.80 1014.99 1015.15 1015.43 1015.74 1015.86
1017.64 1016.46 1015.33 1014.48 1014.81 1015.35 1015.27 1014.78 1014.63 1013.66 1013.68 1013.91 1014.34 1014.80 1015.64 1016.24 1016.56 1016.85 1017.05 1017.47 1017.61 1017.42 1017.06 1016.41 1016.16 1015.66 1015.39 1015.20 1014.84 1014.81 1014.73 1014.87 1014.81 1014.68 1014.68 1014.70 1014.85 1014.77 1014.66 1014.67 1015.22 1015.50 1015.73 1015.88
1015.93 1014.68 1013.71 1013.76 1014.41 1014.46 1014.16 1014.21 1014.04 1013.23 1013.69 1014.20 1014.23 1014.83 1015.28 1015.76 1016.46 1016.79 1016.82 1017.06 1016.82 1016.49 1016.26 1015.79 1015.52 1015.51 1015.23 1015.64 1015.44 1014.44 1014.48 1014.72 1014.67 1015.04 1014.89 1015.02 1015.17 1015.00 1015.02 1014.99 1015.40 1015.56 1015.80 1015.83
Thickness
5601 5602 5600 5603 5606 5610 5616 5609 5609 5641 5644 5608 5599 5592 5607 5613 5607 5614 5608 5610 5605 5599 5603 5602 5605 5600 5612 5630 5634 5621 5629 5624 5625 5650 5665 5676 5669 5647 5647 5650 5667 5661 5668 5685
5597 5597 5599 5601 5602 5600 5597 5598 5601 5634 5637 5584 5581 5597 5596 5595 5592 5592 5591 5589 5593 5593 5586 5591 5596 5601 5609 5618 5613 5606 5615 5596 5598 5634 5639 5642 5636 5638 5637 5639 5643 5653 5647 5668
5594 5595 5596 5600 5600 5598 5595 5596 5593 5602 5603 5596 5590 5584 5579 5582 5591 5585 5588 5581 5584 5580 5574 5580 5581 5582 5595 5604 5607 5613 5606 5584 5586 5577 5593 5607 5612 5626 5632 5624 5615 5625 5643 5664
5593 5593 5594 5598 5602 5603 5599 5591 5586 5590 5579 5580 5581 5583 5575 5572 5570 5576 5575 5570 5568 5566 5563 5565 5566 5571 5573 5586 5591 5587 5580 5570 5577 5583 5593 5597 5603 5615 5620 5615 5619 5621 5639 5646
5590 5592 5591 5594 5600 5605 5598 5585 5580 5583 5575 5581 5578 5569 5564 5567 5566 5566 5562 5559 5562 5561 5555 5558 5556 5557 5557 5561 5564 5563 5559 5555 5557 5559 5576 5581 5584 5598 5611 5617 5619 5622 5630 5638
5588 5589 5589 5589 5593 5600 5587 5585 5583 5576 5568 5567 5563 5561 5565 5560 5562 5560 5562 5559 5554 5553 5555 5559 5559 5557 5552 5551 5552 5546 5548 5541 5530 5535 5546 5556 5562 5587 5595 5603 5609 5610 5604 5628
5587 5587 5586 5584 5585 5586 5580 5578 5573 5566 5559 5563 5562 5566 5565 5561 5557 5552 5555 5551 5547 5552 5557 5557 5558 5555 5550 5548 5545 5535 5534 5524 5510 5509 5525 5513 5566 5573 5582 5590 5595 5592 5606 5619
5587 5585 5584 5582 5582 5583 5580 5577 5571 5561 5555 5564 5565 5563 5560 5553 5553 5552 5551 5550 5547 5547 5542 5531 5529 5525 5532 5534 5533 5522 5523 5512 5498 5504 5491 5528 5551 5539 5538 5549 5562 5562 5573 5595
5586 5584 5583 5581 5581 5581 5580 5576 5573 5564 5555 5558 5573 5561 5557 5544 5540 5538 5547 5547 5544 5538 5516 5511 5506 5506 5502 5506 5515 5514 5513 5511 5500 5493 5493 5495 5507 5519 5531 5540 5539 5539 5549 5564
5584 5582 5583 5581 5579 5579 5577 5574 5576 5568 5562 5568 5571 5557 5554 5555 5544 5530 5540 5542 5535 5526 5498 5514 5501 5506 5501 5476 5488 5486 5488 5485 5482 5495 5496 5506 5502 5513 5524 5515 5523 5521 5525 5537
5583 5580 5581 5580 5578 5576 5575 5573 5576 5568 5559 5566 5579 5576 5565 5558 5548 5536 5541 5529 5523 5509 5496 5505 5496 5494 5493 5483 5483 5489 5482 5469 5478 5466 5485 5490 5495 5499 5493 5495 5495 5502 5509 5516
5583 5581 5579 5579 5578 5575 5574 5569 5575 5572 5563 5570 5581 5581 5580 5576 5569 5552 5545 5536 5529 5518 5506 5500 5482 5490 5491 5485 5484 5486 5475 5469 5462 5467 5467 5481 5477 5473 5473 5477 5480 5488 5499 5503
5582 5581 5579 5579 5577 5573 5571 5567 5568 5569 5563 5569 5574 5577 5583 5580 5576 5570 5547 5537 5540 5531 5524 5503 5499 5489 5482 5479 5488 5485 5481 5468 5463 5460 5475 5470 5472 5471 5471 5470 5472 5478 5484 5497
5582 5581 5580 5578 5576 5572 5569 5563 5564 5558 5554 5552 5564 5585 5580 5584 5577 5571 5567 5557 5544 5531 5521 5509 5505 5498 5489 5471 5482 5483 5476 5470 5474 5471 5470 5467 5465 5465 5467 5467 5469 5476 5485 5490
5582 5581 5580 5577 5575 5572 5568 5565 5566 5561 5553 5549 5557 5571 5581 5578 5572 5567 5561 5550 5539 5523 5518 5514 5512 5513 5495 5492 5490 5490 5482 5480 5474 5468 5475 5467 5467 5465 5466 5461 5466 5472 5474 5484
5583 5580 5579 5577 5574 5571 5567 5564 5564 5561 5560 5556 5550 5572 5582 5584 5575 5567 5557 5547 5536 5525 5517 5510 5520 5527 5513 5491 5494 5500 5490 5488 5485 5480 5480 5472 5472 5467 5465 5458 5460 5466 5469 5473
5583 5580 5579 5577 5574 5569 5562 5565 5566 5563 5559 5554 5555 5558 5574 5573 5569 5561 5553 5550 5541 5535 5523 5520 5516 5515 5508 5492 5480 5507 5497 5493 5487 5485 5477 5471 5472 5466 5467 5460 5457 5460 5464 5467
5584 5581 5580 5578 5575 5571 5566 5574 5571 5563 5556 5556 5553 5562 5568 5570 5554 5545 5543 5541 5536 5534 5530 5520 5512 5501 5497 5486 5508 5508 5503 5495 5488 5484 5476 5476 5471 5467 5463 5459 5455 5454 5457 5460
5585 5583 5581 5579 5574 5570 5571 5572 5571 5563 5555 5551 5557 5555 5555 5563 5549 5542 5541 5537 5529 5532 5527 5519 5514 5487 5485 5508 5507 5506 5504 5496 5490 5485 5478 5472 5467 5466 5462 5458 5454 5449 5451 5453
5584 5582 5582 5582 5583 5582 5575 5565 5558 5553 5549 5545 5542 5552 5549 5550 5544 5539 5537 5530 5529 5525 5527 5524 5501 5493 5503 5505 5511 5512 5505 5499 5493 5488 5477 5473 5468 5465 5463 5459 5454 5449 5448 5448
5581 5584 5587 5587 5584 5579 5573 5569 5563 5557 5554 5547 5549 5549 5544 5549 5538 5528 5528 5524 5519 5510 5515 5518 5499 5492 5504 5513 5514 5508 5503 5499 5492 5489 5483 5475 5468 5464 5462 5460 5454 5451 5448 5447
5583 5581 5583 5585 5583 5582 5578 5579 5579 5568 5562 5558 5553 5556 5549 5547 5542 5532 5519 5523 5518 5503 5503 5497 5490 5492 5508 5508 5509 5505 5503 5498 5493 5483 5477 5473 5471 5467 5464 5461 5457 5453 5449 5446
5584 5584 5588 5590 5589 5578 5582 5568 5567 5564 5569 5568 5564 5560 5555 5543 5531 5521 5521 5523 5513 5496 5493 5487 5488 5504 5508 5501 5498 5502 5496 5494 5489 5483 5478 5476 5472 5467 5463 5460 5457 5454 5451 5449
5584 5591 5570 5586 5587 5596 5590 5581 5584 5585 5582 5576 5568 5558 5551 5543 5534 5525 5525 5516 5510 5509 5491 5493 5498 5499 5498 5496 5496 5496 5494 5491 5488 5484 5481 5476 5470 5467 5465 5461 5458 5452 5448 5448
5586 5593 5576 5598 5610 5602 5598 5593 5586 5589 5587 5578 5567 5559 5553 5542 5537 5524 5520 5519 5513 5497 5490 5495 5494 5500 5499 5496 5499 5488 5487 5485 5481 5482 5479 5474 5470 5470 5467 5460 5457 5451 5445 5442
5589 5595 5602 5607 5600 5591 5591 5593 5587 5593 5587 5581 5572 5563 5550 5540 5529 5527 5523 5512 5493 5502 5497 5499 5497 5499 5496 5492 5495 5489 5484 5480 5478 5475 5473 5471 5467 5467 5464 5460 5452 5447 5442 5439
5601 5603 5613 5611 5602 5596 5596 5592 5588 5591 5585 5576 5567 5561 5553 5538 5528 5523 5517 5509 5504 5502 5500 5500 5497 5493 5493 5481 5480 5485 5479 5472 5470 5464 5463 5461 5457 5454 5456 5455 5449 5444 5439 5437